Hourly Data Report for August 14, 2017

All times are specified in Local Standard Time (LST). Add 1 hour to adjust for Daylight Saving Time where and when it is observed.

ST. STEPHEN
NEW BRUNSWICK

45°12'36.600" N
67°15'10.300" W
26.10 m
8104935
71607
WSS

Download Data

Hourly Data (August 2017)
Hourly Data Report for August 14, 2017
Temp Definition
°C
Dew Point Temp Definition
°C
Rel Hum Definition
%
Wind Dir Definition
10's deg

Wind Spd Definition
km/h
Visibility Definition
km
Stn Press Definition
kPa
Hmdx Definition


Wind Chill Definition


Weather Definition


TIME
00:00 12.2 11.4 95   0   100.97     LegendNANA
01:00 11.7 11.0 95   0   100.98     LegendNANA
02:00 11.3 10.5 95 31 1   100.97     LegendNANA
03:00 10.7 10.0 96   0   101.04     LegendNANA
04:00 10.6 9.9 96 31 1   101.11     LegendNANA
05:00 10.8 10.2 96 31 1   101.14     LegendNANA
06:00 10.8 10.2 96 27 1   101.20     LegendNANA
07:00 14.3 13.3 93   0   101.24     LegendNANA
08:00 17.9 14.2 79 26 3   101.27     LegendNANA
09:00 21.2 14.4 65 26 4   101.28 25   LegendNANA
10:00 23.4 14.3 57 23 9   101.28 27   LegendNANA
11:00 25.3 13.7 49 25 12   101.28 28   LegendNANA
12:00 26.4 12.7 43 26 10   101.22 29   LegendNANA
13:00 27.0 11.7 38 27 12   101.16 29   LegendNANA
14:00 28.2 10.8 34 25 16   101.09 30   LegendNANA
15:00 27.8 11.5 36 24 18   101.06 30   LegendNANA
16:00 27.4 11.5 37 26 10   101.02 29   LegendNANA
17:00 27.5 11.4 37 25 12   101.01 29   LegendNANA
18:00 26.6 10.8 37 25 13   101.00 28   LegendNANA
19:00 25.2 11.9 43 24 8   101.05 27   LegendNANA
20:00 22.7 14.1 58 21 7   101.11 26   LegendNANA
21:00 20.7 13.9 65 19 1   101.16     LegendNANA
22:00 17.2 14.0 81   0   101.16     LegendNANA
23:00 15.6 13.1 85   0   101.17     LegendNANA

Notes on Data Quality.

Legend

  • E = Estimated
  • M = Missing
  • NA = Not Available
  • ‡ = Partner data that is not subject to review by the National Climate Archives
Date modified: